GW1618 Weather Reports


Display with metric or nautical units.
time (UTC)temp
F
wind
direction
speed
MPH
gust
MPH
rain 1hr
in
rain 24hr
in
rain mn
in
humidity
%
barometer
mb
20260507004000 58 265 5.0 10.0 0.00 0.00 0.00 67 1020.0
20260507003216 58 284 6.0 12.0 0.00 0.00 0.00 67 1020.0
20260507002429 58 248 6.0 17.0 0.00 0.00 0.00 66 1020.0
20260507001931 58 314 6.0 17.0 0.00 0.00 0.00 67 1020.1
20260507001433 58 277 6.0 10.0 0.00 0.00 0.00 67 1020.1
20260507000927 57 298 6.0 12.0 0.00 0.00 0.00 67 1020.1
20260507000420 57 274 7.0 15.0 0.00 0.00 0.00 66 1020.1
20260506235918 57 316 6.0 15.0 0.00 0.00 0.00 67 1020.1
20260506235417 57 293 5.0 11.0 0.00 0.00 0.00 69 1020.1
20260506234917 57 281 5.0 13.0 0.00 0.00 0.00 70 1020.2
20260506234658 57 310 4.0 13.0 0.00 0.00 0.00 69 1020.2
20260506233916 57 304 4.0 10.0 0.00 0.00 0.00 69 1020.2
20260506233417 57 304 5.0 10.0 0.00 0.00 0.00 70 1020.2
20260506233158 57 277 6.0 12.0 0.00 0.00 0.00 70 1020.2
20260506232418 57 272 5.0 12.0 0.00 0.00 0.00 70 1020.2
20260506231911 57 256 3.0 6.0 0.00 0.00 0.00 70 1020.2
20260506231411 57 277 4.0 11.0 0.00 0.00 0.00 70 1020.2
20260506230911 57 313 5.0 11.0 0.00 0.00 0.00 69 1020.2
20260506230416 57 304 6.0 11.0 0.00 0.00 0.00 68 1020.2
20260506225909 57 255 6.0 11.0 0.00 0.00 0.00 68 1020.2
20260506225653 57 247 6.0 13.0 0.00 0.00 0.00 68 1020.2
20260506224907 57 278 6.0 13.0 0.00 0.00 0.00 69 1020.2
20260506224406 57 265 7.0 17.0 0.00 0.00 0.00 69 1020.2
20260506224148 57 224 8.0 17.0 0.00 0.00 0.00 68 1020.2
20260506223405 57 167 7.0 13.0 0.00 0.00 0.00 69 1020.2
20260506222903 57 176 8.0 16.0 0.00 0.00 0.00 69 1020.2
20260506222402 57 212 7.0 16.0 0.00 0.00 0.00 69 1020.2
20260506221906 57 217 6.0 13.0 0.00 0.00 0.00 69 1020.4
20260506221401 57 265 6.0 15.0 0.00 0.00 0.00 68 1020.4
20260506220852 57 190 6.0 15.0 0.00 0.00 0.00 68 1020.4
20260506220358 57 263 6.0 12.0 0.00 0.00 0.00 67 1020.3
20260506215851 57 242 6.0 12.0 0.00 0.00 0.00 67 1020.3
20260506215351 58 274 7.0 13.0 0.00 0.00 0.00 67 1020.3
20260506214853 57 253 7.0 15.0 0.00 0.00 0.00 66 1020.3
20260506214351 57 269 7.0 15.0 0.00 0.00 0.00 66 1020.3
20260506213849 57 252 8.0 18.0 0.00 0.00 0.00 67 1020.3
20260506213349 57 263 6.0 18.0 0.00 0.00 0.00 67 1020.4
20260506212854 57 201 5.0 14.0 0.00 0.00 0.00 67 1020.4
20260506212348 57 230 7.0 16.0 0.00 0.00 0.00 68 1020.4
20260506211838 57 267 7.0 16.0 0.00 0.00 0.00 68 1020.5
20260506211335 57 226 5.0 10.0 0.00 0.00 0.00 68 1020.5
20260506211117 57 221 7.0 16.0 0.00 0.00 0.00 68 1020.5
20260506210335 57 258 7.0 17.0 0.00 0.00 0.00 68 1020.4
20260506205836 57 261 6.0 17.0 0.00 0.00 0.00 68 1020.4
20260506205333 57 248 6.0 13.0 0.00 0.00 0.00 68 1020.4
20260506205127 57 277 6.0 12.0 0.00 0.00 0.00 69 1020.4
20260506204334 56 231 7.0 12.0 0.00 0.00 0.00 69 1020.4
20260506203831 56 260 7.0 15.0 0.00 0.00 0.00 69 1020.4
20260506203329 56 232 7.0 15.0 0.00 0.00 0.00 70 1020.2
20260506202830 57 217 6.0 17.0 0.00 0.00 0.00 70 1020.2
20260506202333 56 282 6.0 17.0 0.00 0.00 0.00 70 1020.2
20260506201829 57 239 5.0 12.0 0.00 0.00 0.00 70 1020.3
20260506201329 56 215 6.0 12.0 0.00 0.00 0.00 69 1020.3
20260506200828 57 226 5.0 12.0 0.00 0.00 0.00 69 1020.3
20260506200329 57 238 6.0 12.0 0.00 0.00 0.00 69 1020.2
20260506195831 56 235 7.0 12.0 0.00 0.00 0.00 69 1020.2
20260506195333 56 226 6.0 13.0 0.00 0.00 0.00 69 1020.2
20260506194830 56 249 6.0 13.0 0.00 0.00 0.00 69 1020.2
20260506194330 57 224 6.0 14.0 0.00 0.00 0.00 68 1020.2
20260506193832 56 183 6.0 14.0 0.00 0.00 0.00 68 1020.2
20260506193331 57 256 4.0 12.0 0.00 0.00 0.00 69 1020.2
20260506192831 56 265 6.0 12.0 0.00 0.00 0.00 69 1020.2
20260506192330 56 208 7.0 13.0 0.00 0.00 0.00 69 1020.2
20260506191829 56 261 7.0 14.0 0.00 0.00 0.00 69 1020.1
20260506191328 56 208 7.0 14.0 0.00 0.00 0.00 70 1020.1
20260506190830 56 159 6.0 13.0 0.00 0.00 0.00 70 1020.1
20260506190321 56 235 6.0 12.0 0.00 0.00 0.00 70 1020.2
20260506185809 56 267 6.0 12.0 0.00 0.00 0.00 70 1020.2
20260506185308 56 248 6.0 14.0 0.00 0.00 0.00 70 1020.2
20260506184808 56 194 6.0 14.0 0.00 0.00 0.00 71 1020.1
20260506184312 56 150 7.0 14.0 0.00 0.00 0.00 71 1020.1
20260506184055 56 229 7.0 14.0 0.00 0.00 0.00 71 1020.1
20260506183600 56 190 6.0 14.0 0.00 0.00 0.00 70 1020.1
20260506182809 56 210 6.0 14.0 0.00 0.00 0.00 70 1020.1
20260506182311 56 255 6.0 12.0 0.00 0.00 0.00 70 1020.1
20260506181805 56 219 7.0 14.0 0.00 0.00 0.00 70 1019.9
20260506181306 56 244 8.0 14.0 0.00 0.00 0.00 70 1019.9
20260506180804 56 264 7.0 14.0 0.00 0.00 0.00 70 1019.9
20260506180304 56 221 7.0 13.0 0.00 0.00 0.00 68 1019.6
20260506175806 56 223 6.0 13.0 0.00 0.00 0.00 68 1019.6
20260506175306 56 204 6.0 14.0 0.00 0.00 0.00 68 1019.6
20260506174802 56 219 6.0 14.0 0.00 0.00 0.00 68 1019.7
20260506174301 56 256 6.0 13.0 0.00 0.00 0.00 69 1019.7
20260506173802 56 265 7.0 14.0 0.00 0.00 0.00 69 1019.7
20260506173301 56 231 6.0 14.0 0.00 0.00 0.00 68 1019.6
20260506172801 56 220 6.0 11.0 0.00 0.00 0.00 68 1019.6
20260506172306 56 260 6.0 11.0 0.00 0.00 0.00 68 1019.6
20260506172050 56 200 5.0 9.0 0.00 0.00 0.00 68 1019.7
20260506171301 56 275 4.0 11.0 0.00 0.00 0.00 69 1019.7
20260506171048 56 255 5.0 11.0 0.00 0.00 0.00 69 1019.7
20260506170304 56 277 4.0 10.0 0.00 0.00 0.00 68 1019.7
20260506165801 56 240 4.0 9.0 0.00 0.00 0.00 69 1019.7
20260506165552 56 223 4.0 8.0 0.00 0.00 0.00 70 1019.7
20260506165121 56 247 4.0 11.0 0.00 0.00 0.00 70 1019.7
20260506164303 56 233 4.0 11.0 0.00 0.00 0.00 70 1019.7
20260506163807 56 221 5.0 12.0 0.00 0.00 0.00 71 1019.7
20260506162739 55 258 5.0 11.0 0.00 0.00 0.00 71 1019.6
20260506162233 55 223 7.0 15.0 0.00 0.00 0.00 71 1019.6
20260506161732 55 215 6.0 15.0 0.00 0.00 0.00 72 1019.4
20260506161228 55 239 5.0 11.0 0.00 0.00 0.00 72 1019.4
20260506160955 55 261 5.0 11.0 0.00 0.00 0.00 72 1019.4
20260506160213 55 205 5.0 11.0 0.00 0.00 0.00 73 1019.2
20260506155711 54 206 5.0 11.0 0.00 0.00 0.00 73 1019.2
20260506155211 54 236 4.0 11.0 0.00 0.00 0.00 74 1019.2
20260506154712 54 275 3.0 7.0 0.00 0.00 0.00 75 1019.3
20260506154209 54 245 3.0 7.0 0.00 0.00 0.00 75 1019.3
20260506153710 54 244 3.0 5.0 0.00 0.00 0.00 77 1019.3
20260506153209 54 209 3.0 6.0 0.00 0.00 0.00 77 1019.2
20260506152712 54 208 3.0 6.0 0.00 0.00 0.00 77 1019.2
20260506152210 53 220 3.0 6.0 0.00 0.00 0.00 78 1019.2
20260506151709 53 217 3.0 6.0 0.00 0.00 0.00 79 1019.4
20260506151448 53 280 3.0 6.0 0.00 0.00 0.00 79 1019.4
20260506150705 53 267 3.0 6.0 0.00 0.00 0.00 79 1019.4
20260506150514 53 250 4.0 7.0 0.00 0.00 0.00 79 1019.2
20260506145203 53 236 4.0 7.0 0.00 0.00 0.00 80 1019.2
20260506144658 53 233 4.0 7.0 0.00 0.00 0.00 80 1019.2
20260506144155 53 203 4.0 9.0 0.00 0.00 0.00 80 1019.2
20260506143644 53 238 4.0 9.0 0.00 0.00 0.00 80 1019.2
20260506143134 53 239 4.0 9.0 0.00 0.00 0.00 80 1019.1
20260506142624 53 239 5.0 11.0 0.00 0.00 0.00 80 1019.1
20260506142125 53 248 5.0 11.0 0.00 0.00 0.00 80 1019.1
20260506141612 53 237 5.0 11.0 0.00 0.00 0.00 80 1018.7
20260506141111 53 257 5.0 11.0 0.00 0.00 0.00 80 1018.7
20260506140605 53 245 4.0 10.0 0.00 0.00 0.00 80 1018.8
20260506140119 53 277 3.0 7.0 0.00 0.00 0.00 81 1018.8
20260506135046 53 261 4.0 10.0 0.00 0.00 0.00 81 1018.8
20260506134545 53 223 3.0 9.0 0.00 0.00 0.00 81 1018.8
20260506134111 53 231 3.0 9.0 0.00 0.00 0.00 82 1018.8
20260506133324 53 240 4.0 9.0 0.00 0.00 0.00 82 1018.8
20260506132543 53 268 3.0 9.0 0.00 0.00 0.00 82 1018.8
20260506132038 53 249 3.0 7.0 0.00 0.00 0.00 82 1018.8
20260506131537 53 257 3.0 6.0 0.00 0.00 0.00 82 1018.8
20260506131037 53 246 4.0 9.0 0.00 0.00 0.00 82 1018.8
20260506130536 53 247 4.0 9.0 0.00 0.00 0.00 82 1018.5
20260506130343 53 261 3.0 6.0 0.00 0.00 0.00 84 1018.5
20260506125032 52 190 3.0 6.0 0.00 0.00 0.00 83 1018.6
20260506124531 52 251 3.0 6.0 0.00 0.00 0.00 83 1018.6
20260506124030 52 266 3.0 4.0 0.00 0.00 0.00 83 1018.6
20260506123530 52 272 3.0 6.0 0.00 0.00 0.00 83 1018.4
20260506123029 53 293 4.0 7.0 0.00 0.00 0.00 83 1018.4
20260506122818 53 285 3.0 7.0 0.00 0.00 0.00 82 1018.4
20260506122027 53 261 4.0 7.0 0.00 0.00 0.00 82 1018.3
20260506121524 53 270 4.0 8.0 0.00 0.00 0.00 82 1018.3
20260506121011 53 247 4.0 8.0 0.00 0.00 0.00 82 1018.3
20260506120509 53 231 4.0 7.0 0.00 0.00 0.00 82 1018.2
20260506120007 53 238 4.0 7.0 0.00 0.00 0.00 82 1018.2
20260506115503 53 216 3.0 7.0 0.00 0.00 0.00 82 1018.2
20260506114957 53 223 2.0 6.0 0.00 0.00 0.00 82 1018.1
20260506114440 53 220 3.0 5.0 0.00 0.00 0.00 82 1018.1
20260506113942 53 237 3.0 5.0 0.00 0.00 0.00 82 1018.1
20260506113431 53 253 2.0 5.0 0.00 0.00 0.00 82 1018.0
20260506113217 53 233 2.0 5.0 0.00 0.00 0.00 82 1018.0
20260506112428 53 212 3.0 5.0 0.00 0.00 0.00 82 1018.0
20260506112214 53 252 3.0 5.0 0.00 0.00 0.00 82 1018.0
20260506111428 53 256 2.0 5.0 0.00 0.00 0.00 82 1018.0
20260506111214 53 259 2.0 3.0 0.00 0.00 0.00 82 1018.0
20260506110429 53 252 2.0 4.0 0.00 0.00 0.00 82 1018.0
20260506105918 53 251 2.0 4.0 0.00 0.00 0.00 82 1018.0
20260506105417 53 269 2.0 4.0 0.00 0.00 0.00 82 1018.0
20260506104917 53 249 2.0 4.0 0.00 0.00 0.00 82 1017.7
20260506104704 53 245 2.0 4.0 0.00 0.00 0.00 82 1017.7
20260506103918 53 233 2.0 4.0 0.00 0.00 0.00 83 1017.7
20260506103418 53 238 2.0 4.0 0.00 0.00 0.00 83 1017.6
20260506103159 53 223 2.0 5.0 0.00 0.00 0.00 83 1017.6
20260506102405 53 261 2.0 5.0 0.00 0.00 0.00 83 1017.6
20260506101906 53 260 3.0 6.0 0.00 0.00 0.00 83 1017.6
20260506101406 53 218 3.0 6.0 0.00 0.00 0.00 83 1017.6
20260506100904 53 263 3.0 5.0 0.00 0.00 0.00 82 1017.6
20260506100722 53 248 2.0 5.0 0.00 0.00 0.00 82 1017.5
20260506095402 53 231 3.0 5.0 0.00 0.00 0.00 81 1017.5
20260506094902 53 216 3.0 5.0 0.00 0.00 0.00 81 1017.3
20260506094400 53 258 3.0 5.0 0.00 0.00 0.00 81 1017.3
20260506093852 53 202 3.0 5.0 0.00 0.00 0.00 81 1017.3
20260506093643 53 257 3.0 5.0 0.00 0.00 0.00 81 1017.3
20260506093139 53 259 3.0 5.0 0.00 0.00 0.00 80 1017.3
20260506092642 53 242 3.0 5.0 0.00 0.00 0.00 80 1017.3
20260506091846 53 237 3.0 6.0 0.00 0.00 0.00 80 1017.2
20260506091344 53 263 3.0 6.0 0.00 0.00 0.00 80 1017.2
20260506091131 53 261 2.0 5.0 0.00 0.00 0.00 80 1017.2
20260506090628 53 201 3.0 6.0 0.00 0.00 0.00 80 1017.4
20260506085841 53 254 3.0 6.0 0.00 0.00 0.00 80 1017.4
20260506085340 53 260 2.0 4.0 0.00 0.00 0.00 80 1017.4
20260506084842 53 274 1.0 3.0 0.00 0.00 0.00 81 1017.1
20260506084339 53 300 1.0 3.0 0.00 0.00 0.00 81 1017.1
20260506084123 53 291 1.0 3.0 0.00 0.00 0.00 81 1017.1
20260506083341 53 234 1.0 3.0 0.00 0.00 0.00 82 1017.0
20260506082831 53 219 1.0 3.0 0.00 0.00 0.00 82 1017.0
20260506082330 53 262 1.0 2.0 0.00 0.00 0.00 83 1017.0
20260506081829 53 241 1.0 3.0 0.00 0.00 0.00 84 1017.0
20260506081331 53 243 1.0 3.0 0.00 0.00 0.00 84 1017.0
20260506080830 53 273 1.0 3.0 0.00 0.00 0.00 83 1017.0
20260506080331 53 201 1.0 3.0 0.00 0.00 0.00 84 1016.8
20260506073304 53 290 0.0 1.0 0.00 0.00 0.00 85 1016.5
20260506072801 53 290 0.0 1.0 0.00 0.00 0.00 84 1016.5
20260506072306 53 290 0.0 1.0 0.00 0.00 0.00 84 1016.5
20260506071809 53 290 0.0 2.0 0.00 0.00 0.00 84 1016.5
20260506071304 53 290 1.0 2.0 0.00 0.00 0.00 84 1016.5
20260506071041 53 293 1.0 2.0 0.00 0.00 0.00 82 1016.5
20260506070303 53 285 1.0 2.0 0.00 0.00 0.00 82 1016.2
20260506062233 54 350 1.0 2.0 0.00 0.00 0.00 80 1016.0
20260506061732 54 350 1.0 2.0 0.00 0.00 0.00 80 1016.0
20260506061228 54 328 0.0 2.0 0.00 0.00 0.00 80 1016.0
20260506060737 55 273 0.0 2.0 0.00 0.00 0.00 79 1016.0
20260506051203 56 340 2.0 3.0 0.00 0.00 0.00 77 1015.6
20260506050936 56 315 1.0 3.0 0.00 0.00 0.00 76 1015.6
20260506050155 57 270 1.0 2.0 0.00 0.00 0.00 76 1015.5
20260506044642 57 39 1.0 2.0 0.00 0.00 0.00 74 1015.5
20260506044143 57 310 1.0 3.0 0.00 0.00 0.00 74 1015.5
20260506043639 57 9 1.0 3.0 0.00 0.00 0.00 73 1015.5
20260506043137 58 327 1.0 3.0 0.00 0.00 0.00 73 1015.5
20260506042913 58 222 2.0 7.0 0.00 0.00 0.00 73 1015.5
20260506042136 58 242 3.0 7.0 0.00 0.00 0.00 73 1015.5
20260506041633 58 279 3.0 5.0 0.00 0.00 0.00 72 1015.4
20260506041133 58 300 4.0 6.0 0.00 0.00 0.00 72 1015.4
20260506040635 58 299 4.0 7.0 0.00 0.00 0.00 72 1015.4
20260506040135 58 289 4.0 7.0 0.00 0.00 0.00 72 1015.0
20260506035632 59 303 4.0 6.0 0.00 0.00 0.00 72 1015.0
20260506035131 59 296 5.0 9.0 0.00 0.00 0.00 71 1015.0
20260506034632 59 314 4.0 9.0 0.00 0.00 0.00 71 1014.9
20260506034133 59 296 3.0 7.0 0.00 0.00 0.00 70 1014.9
20260506033634 60 273 3.0 4.0 0.00 0.00 0.00 70 1014.9
20260506033129 60 304 3.0 7.0 0.00 0.00 0.00 70 1014.7
20260506032630 60 321 4.0 7.0 0.00 0.00 0.00 69 1014.7
20260506032123 60 297 5.0 7.0 0.00 0.00 0.00 69 1014.7
20260506031615 61 318 5.0 7.0 0.00 0.00 0.00 68 1014.5
20260506031106 61 300 5.0 7.0 0.00 0.00 0.00 68 1014.5
20260506030559 61 306 4.0 8.0 0.00 0.00 0.00 67 1014.5
20260506030058 62 310 4.0 7.0 0.00 0.00 0.00 66 1014.5
20260506025548 62 304 5.0 8.0 0.00 0.00 0.00 65 1014.5
20260506025038 62 263 5.0 9.0 0.00 0.00 0.00 65 1014.5
20260506024534 62 273 5.0 9.0 0.00 0.00 0.00 64 1014.5
20260506024026 63 277 4.0 7.0 0.00 0.00 0.00 63 1014.5
20260506023521 63 298 5.0 7.0 0.00 0.00 0.00 64 1014.5
20260506023303 63 308 5.0 10.0 0.00 0.00 0.00 64 1014.5
20260506022515 63 302 5.0 10.0 0.00 0.00 0.00 63 1014.5
20260506022017 63 281 6.0 9.0 0.00 0.00 0.00 64 1014.4
20260506021515 63 304 7.0 10.0 0.00 0.00 0.00 64 1014.4
20260506021014 63 303 8.0 12.0 0.00 0.00 0.00 64 1014.4
20260506020513 64 310 7.0 12.0 0.00 0.00 0.00 63 1014.4
20260506020010 64 322 5.0 9.0 0.00 0.00 0.00 62 1014.4
20260506015753 64 302 4.0 10.0 0.00 0.00 0.00 62 1014.4
20260506015008 64 329 6.0 10.0 0.00 0.00 0.00 63 1014.4
20260506014751 64 329 5.0 10.0 0.00 0.00 0.00 62 1014.4
20260506014250 65 285 4.0 8.0 0.00 0.00 0.00 61 1014.4
20260506013757 65 328 3.0 5.0 0.00 0.00 0.00 61 1014.4
20260506013006 65 239 2.0 4.0 0.00 0.00 0.00 61 1014.4
20260506012753 65 206 2.0 4.0 0.00 0.00 0.00 60 1014.4
20260506012002 65 208 2.0 4.0 0.00 0.00 0.00 61 1014.4
20260506011455 65 203 2.0 5.0 0.00 0.00 0.00 62 1014.4
20260506011006 65 243 3.0 6.0 0.00 0.00 0.00 63 1014.4
20260506005944 64 140 4.0 6.0 0.00 0.00 0.00 63 1014.4
20260506005444 64 211 4.0 6.0 0.00 0.00 0.00 63 1014.4
20260506004942 64 161 4.0 7.0 0.00 0.00 0.00 64 1014.5
20260506004446 64 207 4.0 7.0 0.00 0.00 0.00 64 1014.5